Weather History for KDVO - May, 2013

Change the Weather History Date:

Sunday, May 19, 2013

  Actual Average (KAPC) Record (KAPC)
Temperature  
Mean Temperature 66 °F 60 °F  
Max Temperature 82 °F 73 °F 85 °F (2013)
Min Temperature 50 °F 46 °F 40 °F (2011)
Degree Days  
Heating Degree Days 0    
Month to date heating degree days  
Since 1 July heating degree days  
Cooling Degree Days 1    
Month to date cooling degree days  
Year to date cooling degree days  
Growing Degree Days 16 (Base 50)    
Moisture  
Dew Point 44 °F    
Average Humidity 49    
Maximum Humidity 94    
Minimum Humidity 21    
Precipitation  
Precipitation 0.00 in - 0.72 in (1957)
Month to date precipitation  
Year to date precipitation  
Sea Level Pressure  
Sea Level Pressure 30.07 in    
Wind  
Wind Speed 6 mph (NW)    
Max Wind Speed 17 mph    
Max Gust Speed 22 mph    
Visibility 10 miles    
Events      
T = Trace of Precipitation, MM = Missing Value Source: NWS Daily Summary

Daily Weather History Graph

Daily Weather History Graph

Search for Another Location

Airport or City:

Trip Planner

Search our weather history database for the weather conditions in past years. The results will help you decide how hot, cold, wet, or windy it might be!

Date:

Astronomy

May. 19, 2013 Rise Set
Actual Time 5:56 AM PDT 8:17 PM PDT
Civil Twilight 5:26 AM PDT 8:47 PM PDT
Nautical Twilight 4:49 AM PDT 9:24 PM PDT
Astronomical Twilight 4:08 AM PDT 10:05 PM PDT
Moon 2:32 PM PDT (5/19) 2:16 AM PDT (5/19)
Length of Visible Light 15h 21m
Length of Day
14h 21m
Waxing Gibbous, 66% of the Moon is Illuminated
May 19
Waxing Gibbous
May 24
Full
May 31
Last Quarter
Jun 8
New
Jun 16
First Quarter

Hourly Weather History & Observations

Time (PDT) Temp. Dew Point Humidity Pressure Visibility Wind Dir Wind Speed Gust Speed Precip Events Conditions
12:15 AM 59.0 °F 41.0 °F 51% 30.10 in 10.0 mi NW 11.5 mph - N/A   Clear
12:35 AM 62.6 °F 42.8 °F 48% 30.10 in 10.0 mi NW 10.4 mph - N/A   Clear
12:55 AM 60.8 °F 42.8 °F 52% 30.10 in 10.0 mi West 6.9 mph - N/A   Clear
1:15 AM 59.0 °F 44.6 °F 59% 30.11 in 10.0 mi North 4.6 mph - N/A   Clear
1:35 AM 57.2 °F 44.6 °F 63% 30.11 in 10.0 mi NNW 9.2 mph - N/A   Clear
1:55 AM 57.2 °F 44.6 °F 63% 30.11 in 10.0 mi Calm Calm - N/A   Clear
2:15 AM 57.2 °F 44.6 °F 63% 30.11 in 10.0 mi Calm Calm - N/A   Clear
2:35 AM 55.4 °F 44.6 °F 67% 30.10 in 10.0 mi NNW 6.9 mph - N/A   Clear
2:55 AM 55.4 °F 44.6 °F 67% 30.11 in 10.0 mi WNW 3.5 mph - N/A   Clear
3:15 AM 57.2 °F 44.6 °F 63% 30.11 in 10.0 mi NW 3.5 mph - N/A   Clear
3:35 AM 57.2 °F 44.6 °F 63% 30.11 in 10.0 mi Calm Calm - N/A   Clear
3:55 AM 50.0 °F 44.6 °F 82% 30.12 in 10.0 mi West 3.5 mph - N/A   Clear
4:15 AM 53.6 °F 44.6 °F 72% 30.12 in 10.0 mi WNW 3.5 mph - N/A   Clear
4:35 AM 53.6 °F 44.6 °F 72% 30.12 in 10.0 mi Calm Calm - N/A   Clear
4:55 AM 53.6 °F 44.6 °F 72% 30.12 in 10.0 mi Calm Calm - N/A   Clear
5:15 AM 55.4 °F 44.6 °F 67% 30.12 in 10.0 mi Calm Calm - N/A   Clear
5:35 AM 53.6 °F 44.6 °F 72% 30.12 in 10.0 mi Calm Calm - N/A   Clear
5:55 AM 53.6 °F 44.6 °F 72% 30.12 in 10.0 mi NNW 3.5 mph - N/A   Clear
6:15 AM 53.6 °F 44.6 °F 72% 30.13 in 10.0 mi Calm Calm - N/A   Clear
6:35 AM 53.6 °F 44.6 °F 72% 30.13 in 10.0 mi NW 5.8 mph - N/A   Clear
6:55 AM 57.2 °F 44.6 °F 63% 30.13 in 10.0 mi WNW 3.5 mph - N/A   Clear
7:15 AM 59.0 °F 44.6 °F 59% 30.13 in 10.0 mi Calm Calm - N/A   Clear
7:35 AM 59.0 °F 44.6 °F 59% 30.13 in 10.0 mi NNW 12.7 mph - N/A   Clear
7:55 AM 60.8 °F 44.6 °F 55% 30.13 in 10.0 mi NNW 11.5 mph - N/A   Clear
8:15 AM 62.6 °F 44.6 °F 52% 30.13 in 10.0 mi NNW 10.4 mph - N/A   Clear
8:35 AM 64.4 °F 42.8 °F 45% 30.13 in 10.0 mi North 9.2 mph - N/A   Clear
8:55 AM 66.2 °F 42.8 °F 43% 30.13 in 10.0 mi North 11.5 mph - N/A   Clear
9:15 AM 66.2 °F 42.8 °F 43% 30.13 in 10.0 mi North 11.5 mph - N/A   Clear
9:35 AM 68.0 °F 42.8 °F 40% 30.13 in 10.0 mi North 8.1 mph - N/A   Clear
9:55 AM 68.0 °F 44.6 °F 43% 30.13 in 10.0 mi North 8.1 mph - N/A   Clear
10:15 AM 69.8 °F 42.8 °F 38% 30.12 in 10.0 mi NNW 8.1 mph - N/A   Clear
10:35 AM 71.6 °F 42.8 °F 35% 30.12 in 10.0 mi ENE 3.5 mph - N/A   Clear
10:55 AM 73.4 °F 41.0 °F 31% 30.11 in 10.0 mi NE 5.8 mph - N/A   Clear
11:15 AM 73.4 °F 41.0 °F 31% 30.11 in 7.0 mi NNE 4.6 mph - N/A   Clear
11:35 AM 75.2 °F 41.0 °F 29% 30.10 in 10.0 mi NNE 3.5 mph - N/A   Clear
11:55 AM 77.0 °F 41.0 °F 28% 30.10 in 10.0 mi NW 3.5 mph - N/A   Clear
12:15 PM 77.0 °F 41.0 °F 28% 30.09 in 10.0 mi NNW 5.8 mph - N/A   Clear
12:35 PM 78.8 °F 37.4 °F 23% 30.08 in 10.0 mi Calm Calm - N/A   Clear
12:55 PM 80.6 °F 39.2 °F 23% 30.07 in 10.0 mi Calm Calm - N/A   Clear
1:15 PM 82.4 °F 39.2 °F 21% 30.07 in 10.0 mi NW 4.6 mph - N/A   Clear
1:35 PM 80.6 °F 39.2 °F 23% 30.05 in 10.0 mi NNE 3.5 mph - N/A   Clear
1:55 PM 82.4 °F 42.8 °F 25% 30.05 in 10.0 mi NW 9.2 mph - N/A   Clear
2:15 PM 82.4 °F 44.6 °F 26% 30.05 in 10.0 mi NW 9.2 mph - N/A   Clear
2:35 PM 82.4 °F 44.6 °F 26% 30.04 in 10.0 mi NW 9.2 mph - N/A   Clear
2:55 PM 82.4 °F 41.0 °F 23% 30.04 in 10.0 mi NW 6.9 mph - N/A   Clear
3:15 PM 82.4 °F 42.8 °F 25% 30.04 in 10.0 mi West 10.4 mph 16.1 mph N/A   Clear
3:35 PM 80.6 °F 46.4 °F 30% 30.03 in 10.0 mi SW 13.8 mph - N/A   Clear
3:55 PM 78.8 °F 44.6 °F 30% 30.03 in 10.0 mi SW 17.3 mph 21.9 mph N/A   Clear
4:15 PM 78.8 °F 44.6 °F 30% 30.02 in 10.0 mi SW 13.8 mph - N/A   Clear
4:35 PM 78.8 °F 44.6 °F 30% 30.01 in 10.0 mi SW 16.1 mph - N/A   Clear
4:55 PM 78.8 °F 42.8 °F 28% 30.01 in 10.0 mi WSW 10.4 mph - N/A   Clear
5:15 PM 78.8 °F 42.8 °F 28% 30.01 in 10.0 mi SW 9.2 mph - N/A   Clear
5:35 PM 78.8 °F 42.8 °F 28% 30.00 in 10.0 mi SW 9.2 mph - N/A   Clear
5:55 PM 77.0 °F 44.6 °F 32% 30.00 in 10.0 mi SSW 6.9 mph - N/A   Clear
6:15 PM 77.0 °F 41.0 °F 28% 29.99 in 10.0 mi SSW 12.7 mph - N/A   Clear
6:35 PM 75.2 °F 41.0 °F 29% 29.99 in 10.0 mi SW 8.1 mph - N/A   Clear
6:55 PM 75.2 °F 41.0 °F 29% 29.99 in 10.0 mi SW 4.6 mph - N/A   Clear
7:15 PM 73.4 °F 42.8 °F 33% 29.99 in 10.0 mi South 6.9 mph - N/A   Clear
7:35 PM 73.4 °F 42.8 °F 33% 29.99 in 10.0 mi South 4.6 mph - N/A   Clear
7:55 PM 68.0 °F 44.6 °F 43% 29.99 in 10.0 mi Calm Calm - N/A   Clear
8:15 PM 66.2 °F 41.0 °F 40% 29.99 in 10.0 mi Calm Calm - N/A   Clear
8:35 PM 64.4 °F 44.6 °F 49% 29.99 in 10.0 mi NE 4.6 mph - N/A   Clear
8:55 PM 62.6 °F 46.4 °F 55% 29.99 in 10.0 mi NNE 4.6 mph - N/A   Clear
9:15 PM 59.0 °F 46.4 °F 63% 30.00 in 10.0 mi North 5.8 mph - N/A   Clear
9:35 PM 59.0 °F 48.2 °F 67% 30.00 in 10.0 mi North 6.9 mph - N/A   Clear
9:55 PM 57.2 °F 48.2 °F 72% 30.01 in 10.0 mi North 6.9 mph - N/A   Clear
10:15 PM 55.4 °F 48.2 °F 77% 30.01 in 10.0 mi North 8.1 mph - N/A   Clear
10:35 PM 55.4 °F 50.0 °F 82% 30.01 in 10.0 mi NNE 3.5 mph - N/A   Clear
10:55 PM 53.6 °F 48.2 °F 82% 30.01 in 10.0 mi North 3.5 mph - N/A   Clear
11:15 PM 53.6 °F 50.0 °F 88% 30.02 in 10.0 mi North 3.5 mph - N/A   Clear
11:35 PM 50.0 °F 48.2 °F 94% 30.01 in 10.0 mi Calm Calm - N/A   Clear
11:55 PM 51.8 °F 48.2 °F 88% 30.01 in 10.0 mi Calm Calm - N/A   Clear